{"data":{"norad_id":65031,"intl_designator":"2025-161S","name":"STARLINK-34677","alt_names":[],"object_type":"PAYLOAD","status":"ACTIVE","operator":null,"country":"US","launch_date":"2025-07-30","launch_site_code":"AFWTR","launch_vehicle":null,"mission":null,"orbit_class":"UNKNOWN","rcs_meters":null,"size_class":null,"mass_kg":null,"dimensions":null,"purposes":["comms"],"wikipedia_slug":null,"has_3d_model":false,"image_url":null,"decayed_at":null,"tle_current":{"epoch":"2026-05-25T03:45:27.337824Z","epoch_age_seconds":55364,"freshness":"FRESH","line1":"1 65031U 25161S   26145.15656641  .00015984  00000+0  55056-3 0  9992","line2":"2 65031  53.1604 299.2796 0001212  75.6937 284.4198 15.30204489 45936","mean_motion":15.30204489,"eccentricity":0.0001212,"inclination_deg":53.1604,"raan_deg":299.2796,"arg_perigee_deg":75.6937,"mean_anomaly_deg":284.4198,"bstar":0.00055056,"rev_number":4593,"period_min":94.105069639487,"perigee_km":474.37104146091,"apogee_km":476.03229075357,"semimajor_km":6853.3386661072,"source":"CELESTRAK","updated_at":"2026-05-25T13:38:20.671658Z"}}}